Temp
-13 -12 -11 -12 -12 -12 -12 -12 -12 -13 -12 -10 -11 -10 -11 -11 -10 -10 -10 -10 -10 -10 -10 -10 -11 -11 -11 -11 -11 -11 -11 -11 -11 -11 -11 -11 -11 -11 -11 -11 -11 -11 -11 -12
-13 -11 -12 -13 -13 -12 -12 -12 -11 -12 -12 -11 -11 -11 -11 -11 -10 -10 -10 -10 -10 -10 -10 -10 -11 -11 -11 -11 -11 -11 -11 -11 -11 -11 -11 -12 -12 -12 -12 -12 -11 -12 -12 -12
-13 -12 -13 -14 -13 -13 -12 -12 -12 -12 -12 -11 -11 -10 -11 -11 -11 -11 -11 -10 -10 -10 -10 -11 -11 -11 -11 -11 -11 -11 -11 -11 -11 -11 -12 -12 -12 -12 -12 -12 -12 -12 -12 -12
-13 -13 -13 -13 -13 -13 -12 -13 -13 -13 -12 -12 -11 -10 -11 -11 -11 -10 -11 -11 -10 -10 -10 -11 -11 -11 -11 -11 -12 -12 -12 -11 -12 -12 -12 -12 -12 -12 -12 -12 -12 -13 -13 -13
-11 -12 -13 -13 -13 -14 -13 -14 -13 -13 -13 -12 -12 -11 -10 -11 -10 -10 -11 -11 -11 -11 -11 -11 -11 -11 -11 -11 -12 -12 -12 -12 -12 -11 -11 -12 -12 -12 -12 -12 -12 -12 -13 -13
-12 -13 -13 -13 -13 -14 -13 -14 -14 -13 -13 -12 -11 -12 -10 -12 -12 -10 -10 -11 -11 -11 -11 -11 -12 -12 -12 -12 -12 -11 -11 -11 -11 -11 -11 -11 -11 -12 -12 -13 -13 -13 -13 -13
-12 -12 -11 -12 -12 -13 -13 -14 -14 -13 -13 -11 -12 -12 -10 -12 -12 -11 -10 -11 -11 -11 -12 -12 -12 -12 -12 -12 -11 -11 -11 -11 -11 -11 -11 -11 -11 -12 -12 -12 -12 -13 -13 -14
-12 -12 -12 -11 -12 -13 -13 -14 -14 -13 -13 -13 -13 -12 -13 -11 -10 -11 -11 -11 -11 -11 -11 -11 -12 -12 -11 -11 -11 -11 -11 -11 -11 -11 -12 -12 -12 -12 -12 -13 -13 -13 -13 -13
-12 -11 -13 -12 -11 -14 -13 -13 -14 -14 -12 -12 -12 -12 -11 -11 -11 -11 -11 -11 -11 -11 -11 -11 -11 -11 -11 -12 -11 -11 -11 -11 -11 -12 -12 -12 -12 -13 -12 -12 -12 -13 -13 -13
-13 -13 -13 -13 -12 -12 -13 -14 -13 -12 -12 -12 -11 -11 -11 -10 -11 -11 -11 -11 -11 -12 -12 -12 -12 -12 -12 -12 -12 -12 -12 -12 -12 -12 -12 -13 -13 -13 -13 -13 -14 -14 -15 -15
-14 -14 -12 -13 -11 -13 -13 -12 -12 -12 -12 -12 -12 -13 -13 -11 -11 -11 -11 -11 -11 -12 -12 -12 -12 -12 -12 -13 -13 -12 -12 -12 -12 -12 -12 -12 -12 -13 -13 -13 -14 -15 -15 -16
-14 -14 -12 -13 -13 -14 -14 -13 -14 -13 -13 -13 -13 -13 -13 -12 -12 -12 -11 -11 -12 -12 -13 -13 -13 -13 -13 -13 -12 -13 -13 -13 -12 -12 -12 -12 -12 -13 -13 -15 -15 -15 -16 -17
-14 -14 -14 -14 -14 -14 -14 -14 -13 -13 -14 -12 -13 -13 -13 -13 -12 -12 -12 -12 -13 -13 -13 -14 -14 -14 -13 -13 -13 -13 -13 -13 -12 -12 -12 -13 -13 -14 -15 -15 -15 -16 -17 -17
-15 -15 -15 -14 -15 -15 -15 -14 -15 -14 -13 -13 -12 -14 -14 -14 -13 -13 -13 -13 -13 -13 -14 -14 -13 -13 -14 -14 -14 -14 -13 -13 -13 -13 -13 -14 -14 -14 -15 -15 -17 -17 -17 -17
-15 -15 -15 -15 -15 -15 -14 -14 -14 -14 -13 -13 -13 -14 -15 -14 -14 -14 -13 -13 -14 -14 -14 -13 -13 -14 -14 -14 -14 -14 -13 -13 -13 -14 -14 -14 -15 -16 -17 -17 -17 -17 -18 -18
-16 -15 -15 -15 -15 -16 -15 -15 -13 -13 -13 -13 -13 -13 -16 -15 -14 -14 -14 -15 -14 -15 -14 -14 -14 -14 -14 -14 -14 -14 -14 -14 -15 -15 -15 -16 -17 -17 -17 -18 -18 -18 -20 -20
-16 -16 -16 -16 -16 -16 -15 -14 -14 -13 -13 -13 -13 -14 -17 -16 -14 -13 -14 -16 -15 -15 -14 -14 -14 -14 -14 -14 -14 -14 -15 -15 -16 -16 -17 -17 -18 -18 -18 -19 -20 -21 -22 -24
-16 -15 -16 -16 -16 -16 -14 -14 -14 -13 -13 -14 -15 -16 -16 -16 -15 -16 -15 -15 -15 -15 -15 -15 -15 -15 -14 -15 -15 -16 -16 -16 -17 -17 -18 -18 -18 -19 -21 -22 -23 -24 -25 -24
-16 -16 -16 -17 -16 -16 -14 -14 -14 -14 -14 -16 -16 -16 -16 -17 -16 -16 -16 -16 -16 -16 -16 -15 -15 -15 -15 -16 -16 -17 -17 -18 -18 -18 -18 -19 -21 -22 -23 -25 -25 -25 -25 -25
-16 -16 -17 -16 -17 -15 -15 -15 -15 -15 -15 -15 -16 -17 -17 -17 -16 -17 -16 -15 -16 -17 -16 -15 -16 -16 -17 -17 -17 -18 -18 -18 -18 -19 -21 -23 -24 -25 -25 -25 -25 -25 -25 -25
-17 -17 -17 -17 -17 -17 -15 -15 -15 -16 -15 -16 -16 -17 -17 -17 -17 -16 -16 -16 -16 -16 -16 -16 -17 -17 -18 -18 -17 -18 -19 -19 -21 -23 -25 -26 -26 -26 -25 -26 -26 -26 -26 -26
-16 -17 -17 -17 -16 -16 -15 -15 -16 -16 -16 -16 -17 -16 -17 -17 -17 -17 -17 -16 -16 -17 -17 -17 -17 -18 -18 -19 -18 -20 -21 -23 -25 -27 -27 -27 -27 -26 -26 -25 -25 -27 -26 -27
-17 -17 -17 -17 -16 -17 -16 -16 -16 -17 -17 -17 -17 -18 -17 -17 -17 -17 -17 -17 -17 -18 -18 -18 -19 -19 -19 -20 -21 -22 -23 -26 -28 -28 -28 -28 -27 -27 -26 -26 -27 -27 -27 -26
-17 -18 -17 -17 -17 -17 -17 -17 -17 -18 -17 -17 -17 -17 -17 -17 -17 -17 -18 -18 -18 -19 -19 -19 -19 -20 -21 -22 -24 -25 -26 -28 -29 -28 -28 -28 -27 -27 -26 -27 -28 -27 -27 -26
-18 -18 -17 -17 -17 -17 -17 -17 -18 -18 -18 -18 -18 -17 -17 -18 -18 -18 -19 -19 -19 -19 -20 -20 -21 -22 -24 -26 -27 -27 -28 -29 -29 -29 -29 -29 -29 -27 -27 -28 -28 -28 -27 -27
-18 -18 -18 -17 -17 -18 -18 -18 -18 -18 -19 -19 -18 -18 -19 -19 -19 -19 -19 -20 -20 -21 -21 -22 -24 -26 -26 -27 -27 -28 -28 -28 -29 -29 -29 -29 -29 -29 -28 -29 -28 -28 -27 -27
Height
5746 5744 5742 5757 5756 5756 5757 5757 5760 5759 5764 5766 5767 5769 5771 5770 5773 5775 5776 5778 5780 5781 5782 5784 5785 5785 5785 5786 5786 5786 5786 5786 5786 5787 5787 5786 5786 5786 5785 5783 5784 5784 5783 5783
5728 5730 5740 5747 5744 5746 5750 5750 5752 5755 5756 5757 5759 5760 5763 5763 5764 5766 5768 5769 5770 5773 5774 5777 5777 5777 5778 5777 5777 5777 5778 5778 5779 5780 5779 5778 5778 5777 5776 5775 5773 5773 5772 5772
5720 5726 5732 5731 5734 5738 5741 5741 5745 5747 5747 5748 5750 5752 5757 5757 5754 5758 5761 5759 5762 5764 5767 5769 5769 5770 5769 5770 5770 5770 5770 5770 5770 5770 5769 5770 5769 5768 5766 5765 5764 5763 5761 5761
5711 5716 5715 5721 5724 5728 5730 5734 5735 5736 5738 5737 5742 5739 5746 5744 5744 5749 5751 5752 5752 5755 5758 5759 5760 5761 5761 5762 5763 5762 5762 5762 5762 5761 5761 5760 5758 5757 5755 5754 5753 5753 5752 5751
5703 5703 5709 5707 5715 5719 5721 5722 5720 5722 5726 5727 5730 5730 5735 5738 5735 5741 5744 5743 5744 5746 5747 5749 5750 5751 5754 5754 5755 5754 5754 5753 5752 5751 5750 5748 5746 5744 5743 5742 5741 5740 5739 5739
5688 5690 5696 5694 5702 5706 5708 5709 5709 5712 5716 5713 5722 5721 5724 5727 5731 5726 5734 5737 5737 5738 5739 5740 5741 5742 5743 5744 5745 5744 5743 5742 5740 5739 5738 5736 5734 5732 5731 5729 5729 5727 5726 5725
5677 5680 5680 5687 5689 5692 5693 5700 5700 5701 5702 5700 5714 5712 5717 5719 5717 5714 5721 5728 5729 5730 5730 5731 5732 5732 5733 5732 5732 5731 5731 5730 5728 5727 5725 5723 5721 5718 5716 5714 5712 5709 5707 5706
5662 5665 5670 5676 5682 5683 5683 5688 5690 5690 5695 5698 5703 5699 5705 5701 5704 5707 5710 5715 5718 5719 5720 5721 5721 5721 5722 5722 5721 5720 5718 5717 5716 5714 5712 5708 5705 5703 5700 5698 5696 5694 5692 5690
5651 5657 5663 5661 5666 5672 5674 5673 5684 5682 5683 5684 5688 5691 5689 5693 5695 5696 5701 5702 5705 5708 5709 5709 5710 5710 5710 5710 5709 5708 5706 5705 5702 5700 5698 5694 5691 5688 5686 5683 5681 5678 5675 5672
5644 5646 5650 5652 5655 5661 5660 5665 5670 5667 5670 5673 5674 5680 5680 5679 5682 5685 5686 5690 5693 5696 5698 5699 5699 5699 5697 5695 5694 5694 5692 5689 5687 5684 5683 5680 5677 5673 5671 5668 5665 5661 5659 5656
5631 5633 5639 5642 5645 5650 5652 5653 5657 5661 5664 5664 5667 5672 5671 5669 5670 5672 5674 5678 5681 5683 5685 5685 5685 5684 5682 5681 5680 5678 5675 5672 5669 5667 5665 5663 5659 5657 5653 5650 5646 5643 5641 5638
5618 5622 5626 5635 5638 5641 5641 5645 5647 5648 5651 5659 5659 5661 5658 5658 5661 5662 5662 5663 5665 5666 5666 5666 5666 5666 5664 5663 5661 5659 5657 5657 5655 5652 5649 5646 5642 5637 5633 5630 5627 5624 5620 5616
5603 5608 5614 5619 5623 5627 5630 5633 5636 5640 5644 5644 5646 5647 5647 5650 5652 5652 5653 5653 5651 5650 5650 5650 5649 5649 5648 5648 5646 5645 5644 5641 5639 5635 5632 5629 5625 5620 5615 5611 5606 5601 5596 5591
5597 5601 5607 5611 5617 5620 5621 5624 5627 5626 5629 5634 5635 5637 5637 5638 5638 5639 5640 5640 5638 5638 5635 5634 5633 5634 5634 5633 5631 5630 5628 5627 5624 5620 5616 5611 5606 5600 5595 5589 5583 5578 5572 5566
5590 5594 5599 5604 5606 5603 5606 5612 5615 5614 5622 5617 5626 5625 5625 5624 5624 5625 5626 5627 5627 5625 5624 5623 5623 5623 5621 5620 5618 5615 5612 5610 5608 5603 5598 5593 5586 5579 5574 5569 5564 5556 5549 5542
5578 5583 5587 5590 5591 5593 5594 5598 5600 5605 5607 5608 5609 5610 5613 5611 5611 5612 5615 5615 5613 5613 5611 5611 5612 5610 5609 5607 5604 5600 5597 5593 5588 5583 5578 5572 5566 5561 5555 5548 5542 5536 5528 5522
5566 5572 5574 5577 5578 5580 5584 5592 5592 5594 5597 5600 5599 5603 5602 5597 5597 5598 5602 5604 5602 5599 5599 5598 5596 5594 5593 5591 5588 5583 5579 5575 5568 5563 5558 5553 5547 5540 5533 5526 5520 5515 5510 5507
5554 5560 5562 5564 5567 5566 5581 5579 5583 5584 5585 5585 5587 5589 5588 5586 5587 5588 5589 5590 5588 5588 5586 5584 5582 5580 5578 5574 5570 5565 5559 5556 5550 5545 5538 5532 5525 5518 5512 5505 5501 5499 5498 5497
5543 5547 5548 5551 5554 5560 5565 5568 5572 5573 5576 5574 5575 5577 5575 5575 5573 5575 5579 5574 5574 5574 5573 5570 5568 5565 5561 5557 5553 5547 5541 5535 5530 5525 5518 5511 5504 5499 5495 5491 5490 5490 5489 5488
5529 5534 5538 5539 5541 5546 5556 5556 5558 5559 5561 5565 5566 5565 5562 5561 5562 5564 5560 5562 5564 5560 5558 5556 5552 5547 5543 5539 5536 5528 5521 5514 5508 5503 5496 5491 5489 5486 5483 5480 5483 5482 5481 5481
5517 5519 5524 5526 5527 5537 5542 5547 5544 5547 5554 5554 5554 5552 5550 5547 5548 5546 5549 5549 5547 5546 5543 5540 5536 5532 5525 5520 5520 5508 5502 5496 5487 5482 5479 5477 5477 5477 5475 5475 5475 5475 5476 5476
5506 5507 5511 5514 5518 5524 5529 5531 5533 5534 5537 5538 5537 5536 5536 5534 5533 5534 5533 5532 5532 5530 5527 5524 5519 5514 5508 5500 5502 5490 5483 5476 5472 5470 5468 5467 5467 5467 5468 5468 5468 5469 5471 5471
5490 5497 5499 5506 5510 5513 5515 5515 5516 5518 5521 5522 5521 5524 5522 5522 5520 5519 5518 5517 5515 5513 5510 5506 5502 5497 5489 5481 5477 5472 5463 5460 5459 5460 5459 5458 5459 5459 5459 5459 5461 5463 5465 5466
5476 5481 5486 5493 5496 5498 5499 5502 5504 5505 5508 5511 5509 5510 5509 5507 5507 5506 5503 5503 5501 5498 5494 5491 5486 5479 5472 5463 5457 5454 5451 5449 5450 5450 5450 5450 5450 5450 5451 5451 5454 5457 5459 5460
5464 5470 5475 5477 5482 5484 5485 5487 5490 5492 5496 5496 5496 5497 5496 5495 5493 5491 5490 5488 5485 5480 5475 5471 5467 5461 5455 5451 5447 5443 5440 5439 5439 5440 5440 5441 5441 5441 5441 5443 5447 5451 5453 5455
5454 5459 5463 5466 5468 5470 5473 5473 5474 5479 5480 5483 5484 5483 5482 5481 5479 5477 5475 5472 5468 5464 5459 5454 5449 5447 5445 5442 5438 5434 5432 5430 5429 5429 5429 5431 5432 5433 5434 5435 5441 5444 5446 5448
Wind_Speed
47 45 43 25 28 31 36 40 38 37 36 36 36 36 36 38 35 36 35 36 36 36 35 34 34 33 33 33 33 33 33 33 32 31 32 35 36 37 39 41 41 42 43 44
54 47 38 31 38 37 36 43 42 42 41 43 40 40 38 40 40 39 39 38 39 38 38 37 36 36 35 35 35 35 35 35 35 35 35 37 39 42 43 43 45 46 48 49
49 43 38 43 43 39 35 43 45 44 44 47 45 45 38 38 44 44 40 44 40 40 38 38 37 38 38 38 38 37 37 38 40 40 41 42 43 44 47 49 50 51 53 54
48 44 48 43 45 40 40 39 45 49 46 50 47 52 45 48 51 46 45 44 44 42 41 40 40 40 40 40 41 41 42 43 44 46 48 48 50 52 53 54 55 55 56 57
43 49 45 49 44 43 41 42 48 55 51 54 54 55 51 48 52 48 45 46 46 45 44 43 43 44 43 44 45 45 44 46 49 51 53 54 57 58 58 58 57 57 58 57
51 53 47 53 49 46 48 46 50 51 54 60 53 56 55 48 44 53 45 45 47 47 46 43 43 44 43 44 45 46 49 52 54 56 58 60 59 59 60 60 60 61 61 62
53 54 55 50 51 51 53 46 47 48 54 60 53 55 53 51 53 57 45 38 41 44 46 47 46 47 47 48 50 52 54 56 57 58 59 61 64 66 67 67 67 67 66 64
53 51 47 43 44 51 48 48 47 48 46 47 33 53 47 58 54 52 48 44 41 43 45 48 51 51 52 53 53 54 57 58 59 62 65 67 69 69 69 70 70 70 71 71
47 42 39 44 42 45 46 44 38 43 48 50 51 54 57 54 53 52 49 46 43 44 46 48 49 50 51 53 55 56 56 58 61 64 65 67 68 67 67 69 70 71 73 75
40 44 43 43 42 37 45 47 44 49 50 49 50 52 56 55 54 52 50 47 45 43 46 48 50 52 54 56 59 59 60 61 63 64 64 63 62 63 64 66 68 71 71 69
42 48 48 43 41 40 45 47 44 43 43 45 47 44 45 54 55 53 51 50 50 50 52 55 57 58 59 59 59 62 63 61 62 59 59 60 61 64 69 71 71 71 71 73
42 45 48 41 37 36 43 43 42 46 46 42 46 48 53 56 57 58 57 60 60 60 61 61 62 62 63 63 63 62 60 58 60 59 62 63 67 72 76 76 76 78 77 75
44 46 46 45 46 43 46 47 48 50 49 49 51 55 56 57 58 58 59 61 62 62 64 64 64 62 63 62 59 56 60 59 62 66 68 72 76 77 78 81 81 82 81 84
33 37 39 44 41 44 48 50 52 54 51 49 49 52 53 55 58 59 58 59 61 60 62 61 59 59 56 56 58 59 60 63 69 72 75 78 82 84 86 86 83 83 84 86
40 32 36 48 50 51 48 46 48 52 46 51 48 47 49 53 55 55 56 53 53 55 56 55 56 57 58 60 60 62 65 70 75 77 79 82 85 86 84 82 82 84 89 94
54 51 42 42 40 34 41 38 36 36 43 46 47 47 47 52 54 52 51 53 54 53 54 55 57 61 63 65 67 68 72 76 79 81 83 85 84 83 83 84 87 92 91 76
58 49 36 40 42 40 40 36 38 37 37 39 41 39 39 47 52 52 51 47 50 55 54 56 60 61 62 65 70 73 77 80 81 83 83 83 84 85 88 93 89 72 54 43
46 51 44 39 43 44 36 37 35 39 40 41 40 43 47 50 53 53 52 52 54 54 56 59 60 61 66 69 73 77 80 80 80 81 82 85 88 92 89 71 51 41 36 38
57 46 41 44 41 41 41 39 39 42 42 43 44 44 47 50 56 57 53 58 59 58 59 61 65 70 72 75 76 77 78 80 80 82 86 91 91 74 47 39 34 34 35 33
57 55 56 47 43 42 38 50 46 48 47 48 47 46 49 53 55 50 57 56 54 57 62 66 69 72 73 74 75 77 80 83 86 89 89 76 52 32 33 33 32 32 26 26
55 58 53 55 50 50 52 52 58 56 54 52 53 54 55 53 54 56 54 54 57 62 67 69 70 71 72 77 77 80 84 88 87 77 51 36 31 29 29 27 29 28 25 20
56 52 54 57 56 55 55 60 59 59 60 62 63 65 59 53 54 55 57 60 62 65 68 69 71 73 76 79 79 86 88 77 57 37 30 31 33 30 31 35 31 24 22 18
65 62 61 58 56 55 53 51 55 55 54 55 52 51 51 53 56 58 59 61 63 65 65 68 70 74 80 85 87 85 69 50 38 30 34 34 32 30 37 37 30 25 21 19
65 57 56 56 55 54 56 53 53 50 51 50 51 49 51 54 57 59 60 60 62 65 66 70 75 79 82 76 62 54 42 38 34 35 33 29 33 29 41 35 25 24 24 20
62 58 59 62 61 61 60 60 55 57 55 51 46 49 54 57 59 59 59 60 63 66 69 74 76 72 57 45 39 35 30 30 34 36 38 33 32 28 41 30 26 26 23 22
73 67 67 68 67 63 61 57 57 52 44 44 48 54 57 57 56 57 59 62 65 68 71 68 56 43 37 36 35 33 31 27 32 36 38 33 29 21 40 32 31 29 27 25
Wind_Direction
277 263 255 257 261 257 245 242 242 240 236 233 237 239 241 254 252 251 251 253 255 257 257 256 260 257 255 255 256 256 257 257 260 267 274 277 278 278 278 279 280 281 281 280
268 257 261 259 257 255 251 247 246 246 245 242 237 239 243 250 255 256 255 255 257 259 262 265 267 266 262 258 256 256 258 257 260 268 272 275 278 279 279 281 281 280 280 280
267 257 255 256 254 253 254 253 245 250 249 246 244 243 240 250 255 255 259 260 258 259 261 264 265 265 265 263 262 261 262 263 266 272 277 280 281 281 282 283 283 281 282 282
263 255 254 249 256 255 256 257 248 246 246 250 249 248 240 242 248 251 257 261 264 264 263 264 263 261 260 260 262 265 266 267 269 273 278 279 280 280 281 279 279 279 279 279
258 256 252 260 257 259 258 255 250 242 243 244 245 251 248 246 253 247 252 257 261 266 267 264 264 263 263 264 265 268 269 269 270 272 275 279 280 279 279 279 277 275 275 275
248 252 248 255 251 252 253 252 255 249 243 245 245 249 249 253 257 258 248 252 257 260 263 264 265 266 266 269 271 272 272 272 273 275 277 279 278 278 279 278 277 277 276 276
246 245 251 247 251 250 250 246 252 253 246 249 249 252 254 259 256 260 263 257 258 259 259 259 261 263 265 268 271 273 274 275 275 276 278 279 280 280 280 280 279 278 276 276
243 244 246 249 250 254 255 248 242 251 254 253 254 254 253 254 261 263 268 265 262 262 259 259 261 263 265 269 271 272 274 276 277 278 279 280 280 280 280 280 280 280 281 281
234 237 243 246 240 241 247 244 244 247 252 253 252 251 259 261 261 265 266 268 268 266 263 262 264 266 268 270 272 274 274 275 276 277 277 277 278 279 280 281 281 281 281 280
225 235 235 239 243 231 236 244 241 245 251 250 254 253 258 264 265 267 273 276 274 270 266 268 269 270 270 269 271 273 275 276 277 278 279 280 280 281 279 277 274 273 273 275
222 229 237 234 238 233 233 241 241 245 246 251 254 253 257 264 268 273 276 278 278 278 277 276 275 274 274 275 277 279 280 283 284 284 285 285 284 282 279 277 279 279 279 279
216 223 235 238 242 233 237 237 238 239 245 249 256 254 256 259 265 271 277 280 282 283 283 281 280 279 280 283 283 284 284 283 285 286 284 286 283 282 283 284 284 283 283 286
216 220 227 230 236 236 234 241 247 248 248 255 255 257 259 260 266 270 275 278 279 280 281 281 281 282 282 282 283 285 288 288 287 287 284 281 282 283 284 284 285 287 289 289
216 229 236 243 250 248 242 242 246 252 253 252 255 259 261 262 266 268 270 272 273 277 278 279 281 281 280 281 283 283 284 285 284 282 283 282 282 283 284 287 291 293 293 294
242 238 240 237 240 246 249 246 248 250 256 259 264 258 263 264 262 262 265 270 273 272 276 280 280 280 280 279 279 279 279 279 280 282 283 283 284 287 290 291 293 294 295 294
255 263 256 244 236 253 254 248 251 246 249 253 256 256 251 258 266 265 266 267 269 272 272 276 278 276 277 277 278 279 279 281 283 285 285 288 290 291 292 293 292 292 297 301
255 252 253 240 246 254 255 249 257 252 253 258 259 264 262 257 261 263 266 268 268 270 272 274 274 274 276 279 280 281 283 284 285 288 290 291 292 293 294 292 297 300 292 283
243 252 240 257 260 258 258 254 259 256 256 257 255 257 257 255 260 263 268 272 270 272 274 277 277 277 281 282 284 283 283 285 287 289 292 293 292 291 296 301 291 280 274 274
239 238 238 243 250 263 265 256 268 262 257 255 257 256 260 263 265 267 271 269 270 272 276 279 278 278 281 284 284 284 286 288 290 291 290 289 292 301 292 274 272 271 272 271
235 243 243 242 251 261 265 274 276 265 263 261 259 259 263 265 268 270 268 272 275 275 276 278 278 280 282 283 285 287 289 290 290 289 291 298 302 283 279 263 264 274 266 258
241 230 242 247 256 265 267 268 272 267 261 265 259 258 260 269 267 265 271 274 274 276 277 279 281 282 282 284 287 290 289 288 291 295 297 282 273 249 254 271 269 264 244 250
235 237 242 253 262 261 268 269 268 265 259 261 261 261 258 268 268 268 270 273 275 276 278 280 281 284 286 287 286 285 288 292 291 283 273 275 260 260 266 262 247 230 236 242
241 240 249 255 260 258 264 267 266 261 260 259 259 259 260 265 268 269 270 274 277 279 281 283 284 285 285 287 287 290 292 287 274 268 272 274 260 263 262 250 224 233 236 239
239 248 250 257 259 262 265 275 264 254 255 258 261 259 262 264 265 269 273 277 278 280 281 281 283 285 288 292 296 296 290 279 264 260 264 277 261 266 255 228 224 236 237 247
243 248 252 257 262 263 264 268 263 260 259 259 257 258 261 264 267 272 274 276 277 279 282 284 286 289 292 293 293 293 289 273 262 264 265 269 275 268 232 217 226 235 242 249
243 251 252 255 257 264 266 264 259 257 255 258 259 261 264 267 269 272 274 276 280 283 286 287 288 291 294 292 293 293 290 287 274 265 263 266 277 290 239 222 236 241 245 251